This demonstration page uses our WeatherBlox Daily Observations layout. Learn more.

Left ArrowRight Arrow

34.16533, -84.80231

Hourly Observations for November 20, 2020

Temp ( °F °C ) Dew Point ( °F °C ) Humidity (%) Winds ( mph kmh ) Pressure ( in mb ) Visibility ( mi km ) Precip ( " mm )
12:53 am 00:53 Clear 46 7.8 31 -0.6 56 56 ESE 5 7 30.49 1033 10 16 0.00 0.00
1:53 am 01:53 Clear 46 7.8 31 -0.6 56 56 Calm 30.49 1033 10 16 0.00 0.00
2:53 am 02:53 Clear 45 7.2 31 -0.6 58 58 E 5 7 30.49 1032 10 16 0.00 0.00
3:53 am 03:53 Clear 45 7.2 31 -0.6 58 58 E 5 7 30.49 1032 10 16 0.00 0.00
4:53 am 04:53 Clear 45 7.2 31 -0.6 58 58 E 3 6 30.50 1033 10 16 0.00 0.00
5:53 am 05:53 Clear 44 6.7 31 -0.6 60 60 E 3 6 30.51 1033 10 16 0.00 0.00
6:53 am 06:53 Clear 43 6.1 32 0 65 65 Calm 30.52 1034 10 16 0.00 0.00
7:53 am 07:53 Sunny 45 7.2 33 0.6 63 63 Calm 30.53 1034 10 16 0.00 0.00
8:53 am 08:53 Sunny 50 10 34 1.1 54 54 VRB 3 6 30.55 1034 10 16 0.00 0.00
9:53 am 09:53 Sunny 55 12.8 37 2.8 51 51 ENE 5 7 30.55 1035 10 16 0.00 0.00
10:53 am 10:53 Sunny 59 15 38 3.3 46 46 ENE 3 6 30.54 1034 10 16 0.00 0.00
11:53 am 11:53 Sunny 65 18.3 43 6.1 45 45 VRB 3 6 30.51 1033 10 16 0.00 0.00
12:53 pm 12:53 Sunny 67 19.4 46 7.8 47 47 SE 3 6 30.48 1032 10 16 0.00 0.00
1:53 pm 13:53 Sunny 70 21.1 47 8.3 44 44 NNE 5 7 30.44 1031 10 16 0.00 0.00
2:53 pm 14:53 Sunny 70 21.1 49 9.4 47 47 VRB 3 6 30.42 1030 10 16 0.00 0.00
3:53 pm 15:53 Sunny 70 21.1 48 8.9 46 46 Calm 30.41 1030 10 16 0.00 0.00
4:53 pm 16:53 Sunny 67 19.4 49 9.4 53 53 Calm 30.41 1030 10 16 0.00 0.00
5:53 pm 17:53 Clear 57 13.9 50 10 78 78 Calm 30.42 1030 10 16 0.00 0.00
6:53 pm 18:53 Clear 53 11.7 49 9.4 86 86 Calm 30.42 1030 10 16 0.00 0.00
7:53 pm 19:53 Clear 51 10.6 47 8.3 86 86 Calm 30.42 1030 10 16 0.00 0.00
8:53 pm 20:53 Clear 49 9.4 46 7.8 90 90 Calm 30.42 1030 10 16 0.00 0.00
9:53 pm 21:53 Clear 47 8.3 44 6.7 90 90 Calm 30.42 1030 10 16 0.00 0.00
10:53 pm 22:53 Clear 45 7.2 43 6.1 93 93 Calm 30.42 1030 10 16 0.00 0.00
11:53 pm 23:53 Clear 46 7.8 43 6.1 89 89 Calm 30.42 1030 10 16 0.00 0.00

Powered by AerisWeather